M0XDC Weather Reports


time (UTC)temp
C
wind
direction
speed
KPH
gust
KPH
rain 1hr
cm
rain 24hr
cm
rain mn
cm
humidity
%
barometer
mb
20260505211503 10 45 3.2 6.4 0.00 0.00 0.00 84 1010.7
20260505211433 10 48 3.2 6.4 0.00 0.00 0.00 84 1010.6
20260505210005 10 46 3.2 6.4 0.00 0.00 0.00 83 1010.9
20260505204503 10 55 4.8 17.7 0.00 0.00 0.00 84 1010.5
20260505204433 10 57 8.0 17.7 0.00 0.00 0.00 84 1010.8
20260505203003 10 70 6.4 12.9 0.00 0.00 0.00 84 1010.6
20260505201503 11 52 6.4 17.7 0.00 0.00 0.00 77 1010.7
20260505201433 11 49 6.4 17.7 0.00 0.00 0.00 77 1010.6
20260505200219 11 35 3.2 9.7 0.00 0.00 0.00 74 1010.3
20260505194505 11 63 0.0 6.4 0.00 0.00 0.00 69 1010.2
20260505194433 11 61 0.0 6.4 0.00 0.00 0.00 69 1010.2
20260505193005 11 44 0.0 3.2 0.00 0.00 0.00 69 1010.0
20260505191720 11 79 0.0 3.2 0.00 0.00 0.00 68 1009.8
20260505191433 11 72 1.6 3.2 0.00 0.00 0.00 68 1009.9
20260505190218 11 67 0.0 3.2 0.00 0.00 0.00 67 1009.6
20260505184503 12 70 0.0 6.4 0.00 0.00 0.00 66 1009.5
20260505184433 12 67 0.0 6.4 0.00 0.00 0.00 66 1009.6
20260505183004 12 63 1.6 9.7 0.00 0.00 0.00 65 1009.4
20260505181719 12 71 3.2 6.4 0.00 0.00 0.00 64 1009.5
20260505181433 12 69 3.2 6.4 0.00 0.00 0.00 65 1009.5
20260505180218 12 95 1.6 3.2 0.00 0.00 0.00 65 1009.6
20260505174503 12 58 0.0 3.2 0.00 0.00 0.00 63 1009.6
20260505174433 12 58 0.0 3.2 0.00 0.00 0.00 63 1009.4
20260505173005 12 71 1.6 3.2 0.00 0.00 0.00 63 1009.3
20260505171505 12 69 0.0 6.4 0.00 0.00 0.00 61 1009.3
20260505171433 12 73 0.0 6.4 0.00 0.00 0.00 62 1009.5
20260505170005 12 81 3.2 6.4 0.00 0.00 0.00 63 1009.6
20260505164505 13 91 3.2 6.4 0.00 0.00 0.00 63 1009.5
20260505164433 13 88 3.2 6.4 0.00 0.00 0.00 63 1009.5
20260505163003 13 61 3.2 12.9 0.00 0.00 0.00 60 1009.4
20260505161718 13 71 3.2 6.4 0.00 0.00 0.00 60 1009.5
20260505161433 13 68 3.2 6.4 0.00 0.00 0.00 61 1009.4
20260505151505 14 68 3.2 12.9 0.00 0.00 0.00 55 1009.7
20260505151433 14 69 3.2 14.5 0.00 0.00 0.00 55 1009.7
20260505124505 15 55 3.2 9.7 0.00 0.00 0.00 52 1010.0
20260505124433 15 58 3.2 9.7 0.00 0.00 0.00 52 1010.0
20260505123005 16 37 4.8 9.7 0.00 0.00 0.00 53 1010.0
20260505121503 16 76 3.2 17.7 0.00 0.00 0.00 48 1009.9
20260505121433 16 72 4.8 17.7 0.00 0.00 0.00 48 1009.9
20260505120005 16 42 3.2 6.4 0.00 0.00 0.00 52 1009.9
20260505114504 15 19 3.2 11.3 0.00 0.00 0.00 56 1010.1
20260505114433 15 24 4.8 11.3 0.00 0.00 0.00 54 1010.0
20260505113005 15 38 3.2 6.4 0.00 0.00 0.00 56 1009.9
20260505111719 15 54 4.8 12.9 0.00 0.00 0.00 57 1010.2
20260505111433 14 63 1.6 17.7 0.00 0.00 0.00 57 1010.4
20260505110220 15 39 3.2 12.9 0.00 0.00 0.00 54 1010.4
20260505101503 15 22 6.4 11.3 0.00 0.00 0.00 56 1010.9
20260505101433 15 24 3.2 9.7 0.00 0.00 0.00 58 1010.6
20260505100003 13 25 4.8 11.3 0.00 0.00 0.00 61 1010.8
20260505094503 14 345 3.2 11.3 0.00 0.00 0.00 63 1010.6
20260505094433 14 349 3.2 11.3 0.00 0.00 0.00 63 1011.0
20260505093004 13 349 3.2 9.7 0.00 0.00 0.00 66 1010.9
20260505091505 13 6 1.6 9.7 0.00 0.00 0.00 67 1010.9
20260505091433 13 10 3.2 9.7 0.00 0.00 0.00 67 1010.9
20260505090005 13 13 3.2 12.9 0.00 0.00 0.00 69 1011.0
20260505084505 13 350 3.2 11.3 0.00 0.00 0.00 67 1011.0
20260505084433 13 345 3.2 11.3 0.00 0.00 0.00 67 1011.2
20260505083003 12 37 3.2 12.9 0.00 0.00 0.00 70 1010.8
20260505081505 12 28 6.4 14.5 0.00 0.00 0.00 73 1011.0
20260505081433 12 34 3.2 14.5 0.00 0.00 0.00 72 1010.8
20260505080006 11 356 6.4 12.9 0.00 0.00 0.00 74 1011.2
20260505074433 11 28 3.2 9.7 0.00 0.00 0.00 75 1011.0
20260505073220 11 43 3.2 14.5 0.00 0.00 0.00 75 1011.1
20260505071503 11 10 1.6 12.9 0.00 0.00 0.00 74 1011.0
20260505071433 11 5 3.2 12.9 0.00 0.00 0.00 74 1011.0
20260505070005 11 38 6.4 14.5 0.00 0.00 0.00 75 1011.4
20260505064503 11 15 3.2 12.9 0.00 0.00 0.00 77 1011.3
20260505064433 11 18 3.2 12.9 0.00 0.00 0.00 77 1011.1
20260505063003 11 21 6.4 12.9 0.00 0.00 0.00 78 1011.2
20260505061503 10 6 0.0 9.7 0.00 0.00 0.00 80 1011.2
20260505061433 10 7 0.0 9.7 0.00 0.00 0.00 80 1011.3
20260505060005 10 340 0.0 6.4 0.00 0.00 0.00 82 1011.3
20260505054505 10 329 0.0 6.4 0.00 0.00 0.00 82 1011.4
20260505054433 10 327 1.6 6.4 0.00 0.00 0.00 83 1011.1
20260505053219 10 339 3.2 6.4 0.00 0.00 0.00 83 1011.4
20260505051503 10 13 1.6 3.2 0.00 0.00 0.00 84 1011.4
20260505051433 10 16 0.0 3.2 0.00 0.00 0.00 85 1011.5
20260505041505 8 45 0.0 3.2 0.00 0.00 0.00 88 1011.4
20260505041433 8 45 0.0 3.2 0.00 0.00 0.00 88 1011.4
20260505040004 8 0 0.0 0.0 0.00 0.00 0.00 88 1011.5
20260505034505 8 45 0.0 3.2 0.00 0.00 0.00 89 1011.4
20260505034433 8 45 0.0 3.2 0.00 0.00 0.00 89 1011.7
20260505033003 8 0 0.0 0.0 0.00 0.00 0.00 89 1011.8
20260505031503 8 45 0.0 3.2 0.00 0.00 0.00 89 1011.7
20260505031433 8 45 0.0 3.2 0.00 0.00 0.00 89 1011.6
20260505030005 8 0 0.0 0.0 0.00 0.00 0.00 89 1011.8
20260505024503 8 45 0.0 3.2 0.00 0.00 0.00 88 1012.0
20260505024433 8 45 0.0 3.2 0.00 0.00 0.00 88 1011.7
20260505023005 8 45 0.0 3.2 0.00 0.00 0.00 87 1011.5
20260505021503 9 66 1.6 6.4 0.00 0.00 0.00 86 1011.6
20260505021433 9 66 3.2 6.4 0.00 0.00 0.00 86 1011.8
20260505020218 9 55 3.2 6.4 0.00 0.00 0.00 86 1011.6
20260505014505 10 67 1.6 6.4 0.00 0.00 0.00 85 1012.0
20260505014433 10 67 1.6 6.4 0.00 0.00 0.00 85 1011.9
20260505013005 10 64 0.0 3.2 0.00 0.00 0.00 86 1012.1
20260505011505 10 50 1.6 6.4 0.00 0.00 0.00 85 1011.9
20260505011433 10 49 1.6 6.4 0.00 0.00 0.00 85 1012.1
20260505010220 10 73 3.2 6.4 0.00 0.00 0.00 86 1011.9
20260505004505 10 59 0.0 6.4 0.00 0.00 0.00 86 1012.0
20260505004433 10 59 3.2 6.4 0.00 0.00 0.00 86 1012.0
20260505003004 10 51 3.2 6.4 0.00 0.00 0.00 87 1012.2
20260505001503 10 53 3.2 9.7 0.00 0.00 0.00 86 1012.2
20260505001433 10 56 4.8 9.7 0.00 0.00 0.00 86 1012.6
20260505000005 10 48 3.2 9.7 0.00 0.00 0.00 87 1012.6
20260504234503 10 69 3.2 9.7 0.00 0.00 0.00 87 1012.8
20260504234433 10 68 3.2 9.7 0.00 0.00 0.00 87 1012.4
20260504233003 10 72 1.6 6.4 0.00 0.00 0.00 89 1012.5
20260504231503 10 60 1.6 6.4 0.00 0.00 0.00 90 1012.5
20260504231433 10 60 0.0 6.4 0.00 0.00 0.00 90 1012.7
20260504230003 11 73 1.6 6.4 0.00 0.00 0.00 90 1012.8
20260504224503 11 88 1.6 6.4 0.00 0.00 0.00 89 1012.6
20260504224433 11 89 3.2 6.4 0.00 0.00 0.00 89 1012.5
20260504223219 11 84 0.0 6.4 0.00 0.00 0.00 88 1012.7
20260504221505 11 82 3.2 6.4 0.00 0.00 0.00 88 1012.7
20260504221433 11 70 3.2 6.4 0.00 0.00 0.00 88 1012.9
20260504214505 11 70 3.2 9.7 0.00 0.00 0.00 88 1012.9
20260504214433 11 60 4.8 9.7 0.00 0.00 0.00 88 1012.8
20260504213216 11 74 3.2 9.7 0.00 0.00 0.00 88 1012.8
20260504211719 12 64 1.6 6.4 0.00 0.00 0.00 87 1012.7